When you browse on this site, cookies collect data to enhance your experience and personalize the content and advertising you see.
Visit our Privacy Policy to learn more. By continuing to use the site, you agree to this use of cookies and data.
  • In United Kingdom
  • List of Countries
  • For 7 days
  • Water Temperature
  • Weather Map
  • Weather Widgets
  • user-avatar
    Login

    Hourly Weather Nakhchivan

    Today, 20 September, Friday

    Time Temperature Precipitation Wind Pressure Humidity
    00:00 +25°C° 0 mm 2 mps 689 mmHg 36%
    01:00 +24°C° 0 mm 2 mps 689 mmHg 37%
    02:00 +24°C° 0 mm 1 mps 688 mmHg 38%
    03:00 +23°C° 0 mm 1 mps 688 mmHg 39%
    04:00 +23°C° 0 mm 1 mps 688 mmHg 40%
    05:00 +22°C° 0 mm 1 mps 688 mmHg 40%
    06:00 +22°C° 0 mm 1 mps 688 mmHg 41%
    07:00 +24°C° 0 mm 1 mps 688 mmHg 36%
    08:00 +26°C° 0 mm 1 mps 689 mmHg 31%
    09:00 +28°C° 0 mm 1 mps 689 mmHg 26%
    10:00 +29°C° 0 mm 1 mps 689 mmHg 23%
    11:00 +31°C° 0 mm 1 mps 688 mmHg 20%
    12:00 +32°C° 0 mm 1 mps 688 mmHg 17%
    13:00 +33°C° 0 mm 1 mps 688 mmHg 15%
    14:00 +34°C° 0 mm 2 mps 687 mmHg 14%
    15:00 +35°C° 0 mm 2 mps 687 mmHg 12%
    16:00 +34°C° 0 mm 2 mps 686 mmHg 13%
    17:00 +32°C° 0 mm 1 mps 686 mmHg 15%
    18:00 +31°C° 0 mm 1 mps 686 mmHg 17%
    19:00 +30°C° 0 mm 1 mps 686 mmHg 19%
    20:00 +29°C° 0 mm 1 mps 686 mmHg 20%
    21:00 +28°C° 0 mm 1 mps 686 mmHg 22%
    22:00 +28°C° 0 mm 1 mps 686 mmHg 23%
    23:00 +27°C° 0 mm 2 mps 685 mmHg 24%

    Tomorrow, 21 September, Saturday

    Time Temperature Precipitation Wind Pressure Humidity
    00:00 +27°C° 0 mm 2 mps 685 mmHg 25%
    01:00 +27°C° 0 mm 2 mps 685 mmHg 25%
    02:00 +26°C° 0 mm 2 mps 684 mmHg 25%
    03:00 +26°C° 0 mm 2 mps 684 mmHg 25%
    04:00 +25°C° 0 mm 2 mps 684 mmHg 26%
    05:00 +25°C° 0 mm 2 mps 683 mmHg 27%
    06:00 +24°C° 0 mm 2 mps 683 mmHg 27%
    07:00 +26°C° 0 mm 2 mps 683 mmHg 24%
    08:00 +29°C° 0 mm 3 mps 684 mmHg 21%
    09:00 +31°C° 0 mm 3 mps 684 mmHg 18%
    10:00 +34°C° 0 mm 4 mps 684 mmHg 16%
    11:00 +36°C° 0 mm 5 mps 683 mmHg 13%
    12:00 +38°C° 0 mm 6 mps 683 mmHg 11%
    13:00 +39°C° 0 mm 8 mps 683 mmHg 10%
    14:00 +39°C° 0 mm 9 mps 682 mmHg 8%
    15:00 +40°C° 0 mm 10 mps 682 mmHg 7%
    16:00 +38°C° 0 mm 9 mps 682 mmHg 7%
    17:00 +35°C° 0 mm 8 mps 682 mmHg 8%
    18:00 +33°C° 0 mm 7 mps 682 mmHg 8%
    19:00 +29°C° 0 mm 7 mps 682 mmHg 15%
    20:00 +27°C° 0 mm 8 mps 683 mmHg 21%
    21:00 +23°C° 0 mm 9 mps 683 mmHg 28%
    22:00 +22°C° 0 mm 9 mps 684 mmHg 30%
    23:00 +19°C° 0 mm 9 mps 684 mmHg 33%

    Day after tomorrow, 22 September, Sunday

    Time Temperature Precipitation Wind Pressure Humidity
    00:00 +18°C° 0 mm 9 mps 684 mmHg 35%
    01:00 +17°C° 0 mm 9 mps 685 mmHg 35%
    02:00 +16°C° 0 mm 8 mps 685 mmHg 34%
    03:00 +16°C° 0 mm 8 mps 685 mmHg 34%
    04:00 +15°C° 0 mm 7 mps 686 mmHg 35%
    05:00 +15°C° 0 mm 7 mps 686 mmHg 36%
    06:00 +14°C° 0 mm 6 mps 687 mmHg 37%
    07:00 +15°C° 0 mm 6 mps 688 mmHg 34%
    08:00 +16°C° 0 mm 5 mps 688 mmHg 32%
    09:00 +17°C° 0 mm 5 mps 689 mmHg 30%
    10:00 +19°C° 0 mm 5 mps 689 mmHg 29%
    11:00 +20°C° 0 mm 4 mps 689 mmHg 27%
    12:00 +21°C° 0 mm 3 mps 689 mmHg 26%
    13:00 +22°C° 0 mm 3 mps 689 mmHg 26%
    14:00 +23°C° 0 mm 2 mps 688 mmHg 25%
    15:00 +24°C° 0 mm 2 mps 688 mmHg 25%
    16:00 +23°C° 0 mm 2 mps 688 mmHg 27%
    17:00 +23°C° 0 mm 2 mps 688 mmHg 29%
    18:00 +23°C° 0 mm 1 mps 688 mmHg 30%
    19:00 +21°C° 0 mm 2 mps 688 mmHg 33%
    20:00 +20°C° 0 mm 2 mps 689 mmHg 35%
    21:00 +18°C° 0 mm 3 mps 689 mmHg 37%
    22:00 +18°C° 0 mm 2 mps 689 mmHg 38%
    23:00 +17°C° 0 mm 2 mps 689 mmHg 40%

    23 September, Monday

    Time Temperature Precipitation Wind Pressure Humidity
    00:00 +17°C° 0 mm 2 mps 688 mmHg 41%
    01:00 +16°C° 0 mm 2 mps 688 mmHg 42%
    02:00 +16°C° 0 mm 2 mps 688 mmHg 44%
    03:00 +15°C° 0 mm 2 mps 688 mmHg 45%
    04:00 +15°C° 0 mm 1 mps 688 mmHg 46%
    05:00 +14°C° 0 mm 1 mps 688 mmHg 47%
    06:00 +14°C° 0 mm 1 mps 688 mmHg 49%
    07:00 +15°C° 0 mm 1 mps 688 mmHg 45%
    08:00 +18°C° 0 mm 1 mps 688 mmHg 40%
    09:00 +19°C° 0 mm 1 mps 688 mmHg 36%
    10:00 +21°C° 0 mm 1 mps 688 mmHg 34%
    11:00 +22°C° 0 mm 1 mps 688 mmHg 31%
    12:00 +24°C° 0 mm 1 mps 688 mmHg 29%
    13:00 +25°C° 0 mm 1 mps 687 mmHg 27%
    14:00 +26°C° 0 mm 1 mps 687 mmHg 26%
    15:00 +27°C° 0 mm 1 mps 686 mmHg 24%
    16:00 +26°C° 0 mm 1 mps 686 mmHg 26%
    17:00 +26°C° 0 mm 1 mps 686 mmHg 28%
    18:00 +25°C° 0 mm 1 mps 686 mmHg 30%
    19:00 +24°C° 0 mm 1 mps 687 mmHg 31%
    20:00 +24°C° 0 mm 1 mps 687 mmHg 33%
    21:00 +23°C° 0 mm 1 mps 687 mmHg 35%
    22:00 +22°C° 0 mm 1 mps 687 mmHg 37%
    23:00 +20°C° 0 mm 2 mps 687 mmHg 39%

    24 September, Tuesday

    Time Temperature Precipitation Wind Pressure Humidity
    00:00 +19°C° 0 mm 2 mps 687 mmHg 41%
    01:00 +19°C° 0 mm 2 mps 687 mmHg 44%
    02:00 +18°C° 0 mm 2 mps 687 mmHg 46%
    03:00 +17°C° 0 mm 2 mps 687 mmHg 49%
    04:00 +17°C° 0 mm 2 mps 687 mmHg 51%
    05:00 +16°C° 0 mm 1 mps 687 mmHg 53%
    06:00 +16°C° 0 mm 1 mps 687 mmHg 54%
    07:00 +18°C° 0 mm 1 mps 688 mmHg 49%
    08:00 +20°C° 0 mm 1 mps 688 mmHg 44%
    09:00 +22°C° 0 mm 1 mps 689 mmHg 39%
    10:00 +23°C° 0 mm 1 mps 689 mmHg 35%
    11:00 +25°C° 0 mm 1 mps 689 mmHg 31%
    12:00 +27°C° 0 mm 1 mps 689 mmHg 26%
    13:00 +28°C° 0 mm 2 mps 688 mmHg 23%
    14:00 +29°C° 0 mm 2 mps 688 mmHg 20%
    15:00 +30°C° 0 mm 2 mps 688 mmHg 17%
    16:00 +29°C° 0 mm 2 mps 687 mmHg 18%
    17:00 +28°C° 0 mm 2 mps 687 mmHg 20%
    18:00 +27°C° 0 mm 1 mps 687 mmHg 21%
    19:00 +26°C° 0 mm 1 mps 687 mmHg 26%
    20:00 +25°C° 0 mm 2 mps 687 mmHg 30%
    21:00 +24°C° 0 mm 2 mps 687 mmHg 35%
    22:00 +23°C° 0 mm 2 mps 687 mmHg 38%
    23:00 +21°C° 0 mm 2 mps 687 mmHg 41%

    25 September, Wednesday

    Time Temperature Precipitation Wind Pressure Humidity
    00:00 +20°C° 0 mm 2 mps 687 mmHg 44%
    01:00 +21°C° 0 mm 1 mps 687 mmHg 46%
    02:00 +20°C° 0 mm 1 mps 687 mmHg 47%
    03:00 +19°C° 0 mm 1 mps 686 mmHg 49%
    04:00 +19°C° 0 mm 1 mps 686 mmHg 50%
    05:00 +19°C° 0 mm 1 mps 686 mmHg 51%
    06:00 +18°C° 0 mm 1 mps 686 mmHg 52%
    07:00 +20°C° 0 mm 1 mps 687 mmHg 45%
    08:00 +22°C° 0 mm 1 mps 687 mmHg 38%
    09:00 +25°C° 0 mm 1 mps 687 mmHg 31%
    10:00 +26°C° 0 mm 1 mps 687 mmHg 27%
    11:00 +28°C° 0 mm 1 mps 687 mmHg 22%
    12:00 +30°C° 0 mm 1 mps 688 mmHg 18%
    13:00 +31°C° 0 mm 2 mps 687 mmHg 16%
    14:00 +32°C° 0 mm 2 mps 687 mmHg 13%
    15:00 +34°C° 0 mm 2 mps 687 mmHg 11%
    16:00 +31°C° 0 mm 2 mps 687 mmHg 12%
    17:00 +30°C° 0 mm 2 mps 686 mmHg 13%
    18:00 +29°C° 0 mm 1 mps 686 mmHg 15%
    19:00 +28°C° 0 mm 1 mps 686 mmHg 16%
    20:00 +27°C° 0 mm 1 mps 686 mmHg 17%
    21:00 +26°C° 0 mm 1 mps 687 mmHg 18%
    22:00 +26°C° 0 mm 1 mps 686 mmHg 19%
    23:00 +25°C° 0 mm 1 mps 686 mmHg 19%
    Show more